Terug naar catalogus

STARLINK-5210

ActiefCommunicatieVLEO
NORAD 54082·PAYLOAD·🇺🇸 United States

Gelanceerd Oct 20, 2022 vanaf Cape Canaveral Space Force Station

Loading…

Volgende Passages (komende 24 uur)

TLE

VersSource: CelesTrak SupGP

Epoch: Sep 14, 2026, 22:09 UTC

1 54082C 22136AH  26257.92340278  .00490110  00000+0  26250-1 0  2577
2 54082  53.1609 204.0873 0001431  91.7540 156.6047 15.14266481    12

Volg STARLINK-5210 in realtime met AllMySat

Download on the App Store